This is the latest recevied weather packets stored in our database for station/object DG8GAA-11. If no packets are shown the sender has not sent any weather packets the latest 10 day(s).
| Time | Temp. | Humidity | Pressure | Rain* | Wind** | Luminosity | Snow |
|---|---|---|---|---|---|---|---|
| 1777517213 | 8.89° C | 39% | 1004.3 hPa | - | - | - | - |
| 1777516310 | 9.44° C | 39% | 1004.3 hPa | - | - | - | - |
| 1777515407 | 9.44° C | 39% | 1004.3 hPa | - | - | - | - |
| 1777514504 | 10° C | 38% | 1004.3 hPa | - | - | - | - |
| 1777513601 | 10° C | 38% | 1004.3 hPa | - | - | - | - |
| 1777512698 | 10.56° C | 38% | 1004.3 hPa | - | - | - | - |
| 1777511795 | 10.56° C | 37% | 1004.4 hPa | - | - | - | - |
| 1777510892 | 11.11° C | 37% | 1004.4 hPa | - | - | - | - |
| 1777509989 | 11.11° C | 37% | 1004.3 hPa | - | - | - | - |
| 1777509086 | 11.67° C | 36% | 1004.2 hPa | - | - | - | - |
| 1777508183 | 11.67° C | 36% | 1004.3 hPa | - | - | - | - |
| 1777507280 | 12.22° C | 36% | 1004.2 hPa | - | - | - | - |
| 1777506377 | 12.78° C | 35% | 1004 hPa | - | - | - | - |
| 1777505474 | 12.78° C | 35% | 1003.7 hPa | - | - | - | - |
| 1777504571 | 13.33° C | 35% | 1003.7 hPa | - | - | - | - |
| 1777502765 | 13.89° C | 35% | 1003.5 hPa | - | - | - | - |
| 1777501862 | 14.44° C | 34% | 1003.4 hPa | - | - | - | - |
| 1777500959 | 15° C | 34% | 1003.3 hPa | - | - | - | - |
| 1777500056 | 15° C | 34% | 1003.1 hPa | - | - | - | - |
| 1777499153 | 15.56° C | 34% | 1002.9 hPa | - | - | - | - |
| 1777498250 | 16.11° C | 34% | 1002.8 hPa | - | - | - | - |
| 1777497347 | 16.11° C | 35% | 1002.8 hPa | - | - | - | - |
| 1777496444 | 16.67° C | 33% | 1002.5 hPa | - | - | - | - |
| 1777495557 | 17.22° C | 33% | 1002.3 hPa | - | - | - | - |
| 1777495557 | 17.78° C | 32% | 1002.2 hPa | - | - | - | - |
* Rain since midnight (hover to see other rain measurements)
** Current wind speed in m/s (hover to see current wind gust speed)